FENGYUN 1C DEB

Satellite information

Favourite Embed

Satellite Type and Status

DEBRISIN ORBIT

Key statistics

Satellite FENGYUN 1C DEB at a glance.

Uptime

9661

Days in orbit

Revolutions

≈ 14.1

Per day

Orbit

SSO

Sun Synchronous Orbit

Inclination

98.8

Latest

Satellite identification and parameters

Extended collection of information and parameters for FENGYUN 1C DEB.

Object identification

Identified? True

Debris? True

Object name: FENGYUN 1C DEB

International designator: 1999-025CFG

Object number (NORAD): 31757

Object ID (CCSDS): 31757

Country: PEOPLES REPUBLIC OF CHINA (PRC)

Current information (Y/N): Y

RCS size: SMALL

Orbital parameters

Period: 102.284 minutes

Inclination: 98.7758 deg

SMA: 7244.917 km

Apoapsis: 1023.494 km

Periapsis: 710.069 km

RAAN: 307.6234 deg

Eccentricy: 0.02163066

Argument of periapsis: 261.4404 deg

Mean anomaly: 96.2203 deg

Mean motion: 14.07837989 rev/day

Mean motion (dot): 0.00000332 rev/day2

B* drag term: 0.00017969385 1/REarth

Two-line elements (TLE)

Creation date: Oct. 11, 2025, 2:58 a.m.

Reference frame: TEME

Reference center: EARTH

Epoch: Oct. 10, 2025, 7:30 p.m. UTC

TLE line 0: 0 FENGYUN 1C DEB

TLE line 1: 1 31757U 99025CFG 25283.81275511 .00000332 00000-0 17969-3 0 9991

TLE line 2: 2 31757 98.7758 307.6234 0216307 261.4404 96.2203 14.07837989629964

Live tracking on map

Real-time ground track for satellite FENGYUN 1C DEB.

In-orbit conjunctions

A list of the most updated potential collisions computed for object FENGYUN 1C DEB.

Target Orbit TCA Probability of collision Miss distance Type
UNAMSAT LEO 2025-06-03 18:00:54 0.0002584965 99.0 (m) PAYLOAD

Associated space launch

Chinese polar orbiting meteorological satellite

FENGYUN 1C DEB was lifted into orbit during the mission ‘Long March 4B | Feng Yun 1C’, on board a Long March 4B space rocket.

The launch took place on May 10, 1999, 1:33 a.m. from Launch Complex 7.

For more information about the launch, click the button.

Launch to space Long March 4B | Feng Yun 1C
Long March 4B | Feng Yun 1C

Agency: N/A

Status: Launch Successful

Launch date: May 10, 1999, 1:33 a.m. UTC

Rocket: Long March 4B

Launch pad: Launch Complex 7

Location: Taiyuan Satellite Launch Center, People's Republic of China

...

Latest news about this satellite

There are no fresh news available about this satellite. Check back as we update our databases every day.


Newsletter sign-up

Weekly statistics, charts and insights to help you stay on top of the space industry.